Location: Épinay
(49.7584°N, 1.5379°E)
Time: 22:08:05
(UTC+00:00)

Daily predictions for brighter satellites

Satellite Brightness Start Highest point End
(mag) Time Altitude Azimuth Time Altitude Azimuth Time Altitude Azimuth
Cosmos 2278 Rocket 2.3 16:52:30 10° NNW 16:58:09 60° ENE 17:03:44 10° SE
Cosmos 2219 Rocket 2.6 16:55:18 10° SW 17:00:51 65° WNW 17:06:28 10° NNE
COSMO-SKYMED 1 4.1 16:58:00 10° NE 17:00:57 18° E 17:03:53 10° SE
ARGOS Delta rocket 3.8 16:58:03 10° SSE 17:02:33 52° ENE 17:06:54 10° N
ISS -2.0 17:00:16 10° SSW 17:02:55 22° SE 17:05:35 10° E
Cosmos 2084 Rocket 4.2 17:00:10 10° NW 17:04:10 55° SW 17:08:05 10° SSE
CZ-4C R/B 3.4 17:01:29 10° SSE 17:04:19 17° ESE 17:07:30 10° ENE
CSL-04 DEB 4.3 17:02:41 10° SSE 17:06:28 56° ENE 17:10:11 10° N
Meteor 1-21 4.3 17:03:25 10° S 17:08:53 56° E 17:14:24 10° NNE
Cosmos 1758 4.1 17:06:33 10° NNW 17:10:20 54° W 17:14:07 10° S
USA 306 2.6 17:09:02 10° NW 17:10:49 26° N 17:12:55 11° ENE
SL-14 R/B 3.8 17:07:22 10° SSW 17:11:05 59° WNW 17:14:51 10° N
CORIOLIS 4.2 17:05:55 10° SSE 17:11:21 88° ENE 17:16:50 10° NNW
Cosmos 1763 Rocket 3.6 17:06:48 10° S 17:11:52 55° ESE 17:16:54 10° NNE
Spot 4 Rocket 4.0 17:07:48 10° SSE 17:12:54 73° ENE 17:18:02 10° NNW
YAOGAN 1 3.8 17:10:44 10° ESE 17:13:49 20° ENE 17:16:55 10° NNE
Cosmos 1733 Rocket 3.4 17:09:49 10° N 17:14:03 43° ENE 17:18:15 10° SSE
Cosmos 540 Rocket 3.7 17:12:41 10° S 17:17:36 49° ESE 17:22:32 10° NNE
Landsat 7 4.4 17:15:35 10° SE 17:19:49 35° ENE 17:24:04 10° N
Cosmos 2322 3.8 17:14:29 10° SSW 17:20:13 85° WNW 17:26:00 10° NNE
Cosmos 468 Rocket 4.4 17:16:42 10° S 17:21:33 42° ESE 17:26:23 10° NE
USA 215 3.5 17:16:23 10° ENE 17:22:51 65° NNW 17:29:18 10° W
Cosmos 2228 Rocket 3.5 17:21:14 10° SSE 17:25:30 42° E 17:29:49 10° NNE
Cosmos 2279 Rocket 3.9 17:19:58 10° N 17:26:12 73° E 17:32:22 10° SSE
NOSS 8 (A) 4.0 17:25:13 10° NW 17:28:07 81° NE 17:31:30 10° SE
Cosmos 1898 Rocket 3.7 17:23:40 10° NNW 17:28:50 51° ENE 17:34:00 10° SE
Cosmos 841 Rocket 4.5 17:26:51 10° SSE 17:31:10 26° E 17:35:00 12° NE
Aureole 1 Rocket 4.4 17:25:09 10° NNW 17:32:53 69° ENE 17:39:51 10° SE
PSLV R/B 3.5 17:29:36 10° SSE 17:33:40 80° WSW 17:37:46 10° NNW
Okean 1-7 3.7 17:35:27 10° SSE 17:39:13 31° E 17:43:00 10° NNE
SL-16 R/B 3.6 17:35:54 10° SE 17:39:27 17° E 17:40:55 16° E
Cosmos 1980 3.8 17:33:59 10° S 17:39:27 55° ESE 17:44:57 10° NE
NOSS 8 (E) 4.4 17:38:22 10° SW 17:42:28 77° SE 17:44:41 19° NE
SMAP 4.1 17:38:18 10° S 17:42:49 50° W 17:47:22 10° NNW
Cosmos 1953 2.0 17:39:11 10° N 17:42:56 84° ENE 17:46:39 10° S
NOSS 0 Rocket 3.9 17:43:12 10° SSW 17:49:20 83° ESE 17:55:32 10° NNE
SKYMED 2 3.8 17:45:06 10° NNE 17:49:21 49° E 17:53:33 10° S
Cosmos 1818 3.8 17:46:07 10° NNW 17:51:27 50° NE 17:56:19 12° ESE
ATLAS 2AS CENTAUR R/B 2.8 17:46:17 10° NW 17:52:59 53° NE 17:59:05 12° ESE
SL-16 R/B 4.5 17:49:10 10° N 17:54:05 25° NW 17:59:01 10° WSW
NOSS 8 (H) 4.3 17:50:16 10° SW 17:54:11 86° SE 17:55:55 25° NE
Cosmos 2369 Rocket 3.0 17:49:38 10° NNW 17:54:28 28° NE 17:56:54 21° E
Resurs 01 Rocket 3.8 17:57:26 11° NNE 17:57:26 11° NNE 17:57:38 10° NNE
ACS3 Solar Sail 1.9 17:50:21 10° SSE 17:56:37 61° ENE 18:02:55 10° N
COSMOS 2428 3.3 17:51:05 10° SW 17:56:41 58° NW 18:02:20 10° NNE
IGS 5A 4.2 17:53:34 10° S 17:57:31 54° W 18:01:28 10° NNW
Cosmos 2333 Rocket 4.2 17:54:32 10° W 17:58:41 20° NW 18:02:52 10° N
Cosmos 372 Rocket 3.8 17:53:49 10° NNW 17:58:56 83° ENE 18:04:01 10° SSE
DNEPR-1 R/B 4.2 17:58:56 10° NW 18:03:45 61° SW 18:07:57 10° SSE
BREEZE-M DEB (TANK) 3.4 17:56:21 10° WSW 18:05:35 84° S 18:07:22 30° E
Cosmos 1908 Rocket 3.7 18:02:54 10° N 18:07:08 49° ENE 18:11:19 10° SSE
Cosmos 2322 Rocket 4.4 18:04:32 10° WNW 18:08:04 17° NNW 18:11:36 10° N
Cosmos 2360 Rocket 4.4 18:07:04 10° WNW 18:10:54 18° NW 18:14:46 10° N
Meteor 1-31 Rocket 2.4 18:09:19 10° SSE 18:12:52 79° ENE 18:16:28 10° NNW
EO 1 Delta rocket 3.7 18:08:31 10° NNE 18:13:16 70° E 18:17:54 10° S
Okean 3 4.0 18:09:23 10° SSW 18:13:25 58° WNW 18:17:30 10° N
Cosmos 1707 Rocket 4.0 18:09:48 10° SSW 18:14:13 65° WNW 18:18:38 10° N
Okean 2 3.7 18:13:17 10° SSW 18:17:12 64° WNW 18:21:09 10° N
Cosmos 2297 4.1 18:12:18 10° NNW 18:17:46 43° NE 18:20:17 28° ESE
Cosmos 1937 Rocket 3.4 18:13:46 10° NNW 18:18:56 90° WSW 18:24:07 10° SSE
CZ-2C R/B 2.6 18:22:18 48° NNE 18:22:18 48° NNE 18:25:04 10° N
Cosmos 2026 Rocket 4.2 18:16:56 10° SSE 18:22:57 47° E 18:29:00 10° NNE
Cosmos 858 Rocket 4.4 18:18:16 10° NNW 18:23:30 78° ENE 18:28:44 10° SSE
BREEZE-M DEB (TANK) 3.6 18:12:13 10° WSW 18:26:54 67° SSE 18:28:56 36° E
Cosmos 1943 Rocket 3.4 18:22:21 10° NW 18:27:40 43° WSW 18:32:55 10° S
RESURS DK-1 4.1 18:24:49 10° NW 18:28:28 33° WSW 18:32:05 10° S
Cosmos 1428 Rocket 4.4 18:23:35 10° S 18:29:44 69° E 18:35:51 10° NNE
YAOGAN 3 4.4 18:26:39 10° SSE 18:30:54 82° ENE 18:35:11 10° NNW
Cosmos 2237 Rocket 2.5 18:27:54 10° SW 18:33:35 69° WNW 18:37:58 18° NNE
BlueWalker 3 1.6 18:30:00 10° WNW 18:33:40 83° NNE 18:33:53 77° E
COSMO-SKYMED 1 3.1 18:33:12 10° N 18:37:29 57° WNW 18:41:44 10° SSW
CZ-4B R/B 4.3 18:35:13 10° S 18:38:45 52° W 18:42:14 10° NNW
ISS -3.6 18:35:59 10° WSW 18:39:01 71° SW 18:39:01 71° SW
NOAA 6 4.4 18:35:38 10° S 18:40:41 64° WSW 18:45:48 10° NNW
Cosmos 2278 Rocket 4.4 18:37:11 10° NW 18:41:50 27° WSW 18:46:27 10° SSW
USA 306 4.0 18:39:49 10° WNW 18:40:49 22° NW 18:40:49 22° NW
Cosmos 1782 Rocket 4.1 18:38:40 10° N 18:41:41 41° NNE 18:41:41 41° NNE
Cosmos 2344 3.9 18:36:36 10° WSW 18:43:54 58° NW 18:48:48 22° NE
Cosmos 2219 Rocket 4.4 18:42:14 10° WNW 18:45:56 18° NW 18:49:40 10° N
YAOGAN 1 3.2 18:45:12 10° S 18:49:23 54° W 18:53:35 10° NNW
YAOGAN 11 3.8 18:51:30 80° E 18:51:33 80° ESE 18:55:50 10° SSW
CZ-4C R/B 1.9 18:47:04 10° SW 18:51:33 80° NW 18:53:04 47° NNE
Nadezhda 4 Rocket 4.3 18:47:16 10° SSW 18:53:20 65° WNW 18:59:29 10° N
ATLAS 5 CENTAUR R/B 2.5 18:53:06 10° SW 18:54:39 27° SSW 18:54:39 27° SSW
Cosmos 2195 Rocket 4.4 18:51:39 10° S 18:57:51 88° WNW 19:04:02 10° N
Meteor 1-24 Rocket 3.8 18:52:08 10° S 18:57:54 56° E 18:58:09 56° E
SPOT 1/Viking Rocket 3.7 18:55:30 10° S 19:00:39 71° WSW 19:05:49 10° NNW
Cosmos 1703 Rocket 3.7 18:56:27 10° SSW 19:00:54 72° WNW 19:02:12 44° N
Resurs 1-3 4.0 19:00:53 10° S 19:05:09 60° W 19:09:27 10° NNW
USA 215 3.8 19:03:32 38° NE 19:05:22 48° N 19:11:34 10° WNW
Meteor 2-5 Rocket 3.9 19:02:48 10° S 19:07:38 57° SE 19:07:38 57° SE
Cosmos 1656 Rocket 3.8 19:06:54 10° NNW 19:12:21 68° WSW 19:14:50 33° S
Cosmos 841 Rocket 4.2 19:07:32 10° SW 19:12:40 52° WNW 19:15:03 30° N
SL-16 R/B 2.1 19:17:06 10° SSW 19:22:47 87° WNW 19:22:50 87° NNW
Cosmos 1553 Rocket 3.8 19:17:47 10° N 19:23:51 81° ENE 19:23:51 81° ENE
ADEOS 3.7 19:29:31 68° WNW 19:29:31 68° WNW 19:34:15 10° NNW
Resurs 01 Rocket 4.1 19:34:52 13° NNW 19:34:52 13° NNW 19:35:22 10° NNW
Cosmos 2369 Rocket 2.4 19:33:22 10° NNW 19:38:45 64° WSW 19:38:45 64° WSW
Cosmos 1092 Rocket 4.5 19:33:19 10° SSW 19:39:23 57° WNW 19:45:32 10° N
ACS3 Solar Sail 3.7 19:35:08 10° SSW 19:40:34 29° W 19:46:02 10° NNW
ATLAS 2AS CENTAUR R/B 3.5 19:37:26 10° NW 19:43:51 46° WSW 19:46:35 31° S
Cosmos 839 Rocket 4.4 19:47:31 10° SW 19:52:33 56° SW 19:52:33 56° SW
Cosmos 2237 Rocket 4.4 20:14:48 10° W 20:18:44 19° NW 20:19:48 18° NNW
CZ-4C R/B 4.4 20:36:27 10° WNW 20:38:08 19° WNW 20:38:08 19° WNW
